Regional Weather Roundup
Issued by NWS

Home | Current Version | Previous Version | Graphics & Text | Print | Product List | Glossary On
Versions: 1 2 3 4 5 6 7 8 9 10 11 12 13 14 15 16 17 18 19 20 21 22 23 24 25 26 27 28 29 30 31 32 33 34 35 36 37 38 39 40 41 42 43 44 45 46 47 48 49 50
000
ASUS43 KOAX 041202
RWRNE

WEATHER ROUNDUP FOR NEBRASKA
NATIONAL WEATHER SERVICE OMAHA NE
600 AM CST SUN DEC 04 2016

NOTES: SATELLITE DATA IS BEING USED TO AUGMENT CLOUD COVER ABOVE
       12000 FEET.
       "FAIR" INDICATES FEW OR NO CLOUDS BELOW 12,000 FEET WITH NO
       SIGNIFICANT WEATHER AND/OR OBSTRUCTIONS TO VISIBILITY.

  * THESE STATIONS DO NOT REPORT WEATHER SUCH AS RAIN...SNOW OR FOG.

NEZ001>004-019>022-054>056-041300-
NEBRASKA PANHANDLE

CITY           SKY/WX    TMP DP  RH WIND       PRES   REMARKS
SCOTTSBLUFF    CLEAR     17  10  74 NW6       29.99F WCI   9
6HR MIN TEMP:  15; 6HR MAX TEMP:  27;

ALLIANCE       CLEAR     17  12  80 W10       29.96F WCI   5
6HR MIN TEMP:  14; 6HR MAX TEMP:  30;

CHADRON        CLOUDY    27  15  61 SW9       29.95F WCI  18
6HR MIN TEMP:  24; 6HR MAX TEMP:  30;

KIMBALL        CLEAR     23  15  71 W12       29.98F WCI  12
SIDNEY         CLEAR     23  14  68 W13       30.00S WCI  11
6HR MIN TEMP:  20; 6HR MAX TEMP:  26;

$$

NEZ057>060-069>072-079>082-041300-
SOUTHWEST NEBRASKA

CITY           SKY/WX    TMP DP  RH WIND       PRES   REMARKS
NORTH PLATTE   PTCLDY    19  15  84 W8        29.98S WCI   9
6HR MIN TEMP:  17; 6HR MAX TEMP:  28;

IMPERIAL       CLEAR     24  14  65 W13       30.01S WCI  12
6HR MIN TEMP:  24; 6HR MAX TEMP:  29;

LEXINGTON      PTCLDY    24  21  89 W8        29.98S WCI  15
MCCOOK         CLEAR     23  17  78 W13       30.00S WCI  11
6HR MIN TEMP:  23; 6HR MAX TEMP:  30;

OGALLALA       CLEAR     23  17  78 W6        30.00S WCI  16
$$

NEZ005>010-023>029-035>040-094-041300-
NORTH CENTRAL NEBRASKA

CITY           SKY/WX    TMP DP  RH WIND       PRES   REMARKS
VALENTINE      PTCLDY    21  18  88 SW5       29.91F WCI  15
6HR MIN TEMP:  19; 6HR MAX TEMP:  27;

AINSWORTH      CLEAR     25  21  85 W6        29.92S WCI  18
BROKEN BOW     PTCLDY    33  22  63 W13       29.94S WCI  24
6HR MIN TEMP:  27; 6HR MAX TEMP:  33;

O`NEILL        CLEAR     27  23  84 W6        29.91S WCI  21
ORD            CLEAR     26  21  81 CALM      29.94S
6HR MIN TEMP:  21; 6HR MAX TEMP:  33;

THEDFORD       CLEAR     25  19  80 W7        29.95S WCI  17
$$

NEZ041-046>049-061>064-073>077-083>087-041300-
SOUTH CENTRAL NEBRASKA

CITY           SKY/WX    TMP DP  RH WIND       PRES   REMARKS
GRAND ISLAND   CLOUDY    30  30 100 W12       29.96S FOG     WCI  20
6HR MIN TEMP:  30; 6HR MAX TEMP:  33;

AURORA         CLOUDY    31  31 100 W8        29.96S FOG     WCI  23
HASTINGS       FOG       31  31 100 W7        29.97F VSB 1   WCI  24
6HR MIN TEMP:  31; 6HR MAX TEMP:  33;

HEBRON         CLOUDY    32  31  97 CALM      29.99F
HOLDREGE       CLEAR     27  25  92 W6        29.97S WCI  21
KEARNEY *      CLOUDY    28  25  86 W7        29.97S WCI  21
YORK           CLOUDY    32  32 100 W10       29.96F FOG     WCI  24
$$

NEZ011>018-030>034-042>045-041300-
NORTHEAST NEBRASKA

CITY           SKY/WX    TMP DP  RH WIND       PRES   REMARKS
NORFOLK        PTCLDY    29  27  92 W7        29.92S WCI  22
6HR MIN TEMP:  29; 6HR MAX TEMP:  33;

ALBION         PTCLDY    30  28  90 CALM      29.93F
BLAIR          CLOUDY    33  32  96 S5        29.95F FOG     WCI  29
FREMONT        CLOUDY    33  33 100 CALM      29.96F
TEKAMAH        CLOUDY    33  31  92 S7        29.96F WCI  27
6HR MIN TEMP:  32; 6HR MAX TEMP:  33;

WAYNE          CLEAR     27  26  97 S7        29.92S WCI  20
$$

NEZ050>053-065>068-078-088>093-041300-
SOUTHEAST NEBRASKA

CITY           SKY/WX    TMP DP  RH WIND       PRES   REMARKS
LINCOLN        CLOUDY    34  32  92 SW5       29.99F WCI  30
6HR MIN TEMP:  32; 6HR MAX TEMP:  34; 6HR PCP: TRACE;

OMAHA EPPLEY   CLOUDY    34  30  85 CALM      29.98F
6HR MIN TEMP:  33; 6HR MAX TEMP:  35; 6HR PCP:  0.02;

BEATRICE       CLOUDY    33  32  98 W7        30.00S WCI  27
FALLS CITY     LGT RAIN  37  37 100 W5        29.99F WCI  33
6HR MIN TEMP:  37; 6HR MAX TEMP:  40; 6HR PCP:  0.43;

NEBRASKA CITY  CLOUDY    34  34 100 W6        30.00R FOG     WCI  29
PLATTSMOUTH    CLOUDY    33  31  93 SW5       29.99S FOG     WCI  28
$$

NEZ044-045-051>053-067-041300-
OMAHA AREA

CITY           SKY/WX    TMP DP  RH WIND       PRES   REMARKS
OMAHA EPPLEY   CLOUDY    34  30  85 CALM      29.98F
6HR MIN TEMP:  33; 6HR MAX TEMP:  35; 6HR PCP:  0.02;

BLAIR          CLOUDY    33  32  96 S5        29.95F FOG     WCI  29
FREMONT        CLOUDY    33  33 100 CALM      29.96F
MILLARD        CLOUDY    34  32  92 CALM      29.98F
OFFUTT AFB     CLOUDY    34  34 100 SW5       29.98F WCI  30
PLATTSMOUTH    CLOUDY    33  31  93 SW5       29.99S FOG     WCI  28
WAHOO          CLOUDY    33  32  96 SW5       29.97S WCI  29
$$



USA.gov is the U.S. government's official web portal to all federal, state and local government web resources and services.